STARLINK-1789

operational
NORAD ID: 46690 Int'l Des: 2020-073 Owner: SPXS Country: US Constellation: starlink
LEOCIRCULARSTARLINK_TYPE

About STARLINK-1789

Description loading...

Live Position

Loading 3D Globe...

Upcoming Passes

Altitude History

Altitude vs Time

uPlot chart will show altitude changes over time

Two-Line Element Set

1 46690U 20073W 25251.49561748 .00002104 00000-0 16021-3 0 9996
2 46690 53.0554 329.5214 0001401 100.9879 259.1267 15.06374722269809
Epoch: Sep 8, 2025 • Age: 22 hours

Current Status

Altitude 550.3 km
Velocity 7.59 km/s
Sub-Earth Point -9.34°S, 177.54°E
Launch Date Oct 18, 2020
Age 4.8 years
Type internet

Technical Details

Classification Payload
Mass 260.00 kg
Dry Mass 248.00 kg
Total Mass 260.00 kg
Length 0.20 m
Diameter 2.80 m
Span 9.00 m
Shape Box + pan
Manufacturer SPXS
Bus Type Starlink
Phase Status In Orbit
Owner/State SPXS/US

Large Constellations

Loading constellations...